Time,TemperatureF,DewpointF,PressureIn,WindDirection,WindDirectionDegrees,WindSpeedMPH,WindSpeedGustMPH,Humidity,HourlyPrecipIn,Conditions,Clouds,dailyrainin,SoftwareType,DateUTC
2013-02-15 00:10:00,33.5,30.0,30.00,WSW,251,0.0,-999.0,87,-99.99,,,0.00,weatherlink.com 1.10,2013-02-15 06:10:00,
2013-02-15 00:25:00,33.8,30.0,29.99,West,259,0.0,-999.0,87,-99.99,,,0.00,weatherlink.com 1.10,2013-02-15 06:25:00,
2013-02-15 00:40:00,33.8,30.0,30.00,West,259,1.0,-999.0,87,-99.99,,,0.00,weatherlink.com 1.10,2013-02-15 06:40:00,
2013-02-15 00:55:00,33.4,30.0,30.00,West,271,0.0,-999.0,87,-99.99,,,0.00,weatherlink.com 1.10,2013-02-15 06:55:00,
2013-02-15 01:10:00,33.1,30.0,30.00,West,272,0.0,-999.0,87,-99.99,,,0.00,weatherlink.com 1.10,2013-02-15 07:10:00,
2013-02-15 01:25:00,32.9,30.0,30.00,West,267,1.0,-999.0,88,-99.99,,,0.00,weatherlink.com 1.10,2013-02-15 07:25:00,
2013-02-15 01:40:00,33.0,30.0,30.00,West,268,0.0,-999.0,89,-99.99,,,0.00,weatherlink.com 1.10,2013-02-15 07:40:00,
2013-02-15 01:55:00,33.1,30.0,30.00,West,269,0.0,-999.0,89,-99.99,,,0.00,weatherlink.com 1.10,2013-02-15 07:55:00,
2013-02-15 02:10:00,33.2,30.0,30.00,WNW,282,0.0,-999.0,89,-99.99,,,0.00,weatherlink.com 1.10,2013-02-15 08:10:00,
2013-02-15 02:25:00,33.2,30.0,30.00,WNW,295,3.0,-999.0,89,-99.99,,,0.00,weatherlink.com 1.10,2013-02-15 08:25:00,
2013-02-15 02:40:00,33.2,31.0,30.01,WNW,298,3.0,-999.0,90,-99.99,,,0.00,weatherlink.com 1.10,2013-02-15 08:40:00,
2013-02-15 02:55:00,33.2,31.0,30.02,WNW,287,1.0,-999.0,90,-99.99,,,0.00,weatherlink.com 1.10,2013-02-15 08:55:00,
2013-02-15 03:10:00,33.1,31.0,30.01,WNW,285,0.0,-999.0,90,-99.99,,,0.00,weatherlink.com 1.10,2013-02-15 09:10:00,
2013-02-15 03:25:00,32.9,30.0,30.02,NW,308,0.0,-999.0,90,-99.99,,,0.00,weatherlink.com 1.10,2013-02-15 09:25:00,
2013-02-15 03:40:00,32.8,30.0,30.02,WNW,292,0.0,-999.0,90,-99.99,,,0.00,weatherlink.com 1.10,2013-02-15 09:40:00,
2013-02-15 03:55:00,32.7,30.0,30.02,WNW,298,2.0,-999.0,90,-99.99,,,0.00,weatherlink.com 1.10,2013-02-15 09:55:00,
2013-02-15 04:10:00,32.7,30.0,30.03,WNW,283,0.0,-999.0,90,-99.99,,,0.00,weatherlink.com 1.10,2013-02-15 10:10:00,
2013-02-15 04:25:00,32.8,31.0,30.03,WNW,283,2.0,-999.0,91,-99.99,,,0.00,weatherlink.com 1.10,2013-02-15 10:25:00,
2013-02-15 04:40:00,32.8,31.0,30.04,WNW,295,1.0,-999.0,91,-99.99,,,0.00,weatherlink.com 1.10,2013-02-15 10:40:00,
2013-02-15 04:55:00,32.8,30.0,30.04,NW,317,2.0,-999.0,90,-99.99,,,0.00,weatherlink.com 1.10,2013-02-15 10:55:00,
2013-02-15 05:11:00,32.8,30.0,30.04,NW,316,6.0,-999.0,90,-99.99,,,0.00,weatherlink.com 1.10,2013-02-15 11:11:00,
2013-02-15 05:26:00,32.6,30.0,30.05,NW,321,2.0,-999.0,90,-99.99,,,0.00,weatherlink.com 1.10,2013-02-15 11:26:00,
2013-02-15 05:41:00,32.5,30.0,30.05,NNW,327,5.0,-999.0,90,-99.99,,,0.00,weatherlink.com 1.10,2013-02-15 11:41:00,
2013-02-15 05:56:00,32.4,30.0,30.06,WNW,293,10.0,-999.0,90,-99.99,,,0.00,weatherlink.com 1.10,2013-02-15 11:56:00,
2013-02-15 06:11:00,32.2,30.0,30.06,NW,305,3.0,-999.0,90,-99.99,,,0.00,weatherlink.com 1.10,2013-02-15 12:11:00,
2013-02-15 06:26:00,32.0,29.0,30.07,NW,306,0.0,-999.0,90,-99.99,,,0.00,weatherlink.com 1.10,2013-02-15 12:26:00,
2013-02-15 06:41:00,31.9,29.0,30.08,NNW,328,5.0,-999.0,89,-99.99,,,0.00,weatherlink.com 1.10,2013-02-15 12:41:00,
2013-02-15 06:56:00,31.7,29.0,30.08,WNW,295,7.0,-999.0,89,-99.99,,,0.00,weatherlink.com 1.10,2013-02-15 12:56:00,
2013-02-15 07:11:00,31.4,29.0,30.09,WNW,297,9.0,-999.0,89,-99.99,,,0.00,weatherlink.com 1.10,2013-02-15 13:11:00,
2013-02-15 07:26:00,31.0,28.0,30.09,WNW,284,6.0,-999.0,89,-99.99,,,0.00,weatherlink.com 1.10,2013-02-15 13:26:00,
2013-02-15 07:41:00,31.0,29.0,30.10,WNW,297,4.0,-999.0,90,-99.99,,,0.00,weatherlink.com 1.10,2013-02-15 13:41:00,
2013-02-15 07:56:00,31.3,29.0,30.11,NW,312,3.0,-999.0,89,-99.99,,,0.00,weatherlink.com 1.10,2013-02-15 13:56:00,
2013-02-15 08:11:00,31.4,29.0,30.11,NNW,327,4.0,-999.0,89,-99.99,,,0.00,weatherlink.com 1.10,2013-02-15 14:11:00,
2013-02-15 08:26:00,31.5,28.0,30.12,NW,317,4.0,-999.0,88,-99.99,,,0.00,weatherlink.com 1.10,2013-02-15 14:26:00,
2013-02-15 08:41:00,31.6,28.0,30.13,NNW,347,5.0,-999.0,86,-99.99,,,0.00,weatherlink.com 1.10,2013-02-15 14:41:00,
2013-02-15 08:56:00,31.8,27.0,30.13,NNW,344,3.0,-999.0,83,-99.99,,,0.00,weatherlink.com 1.10,2013-02-15 14:56:00,
2013-02-15 09:12:00,32.0,27.0,30.14,North,355,7.0,-999.0,83,-99.99,,,0.00,weatherlink.com 1.10,2013-02-15 15:12:00,
2013-02-15 09:27:00,31.3,27.0,30.14,NW,319,4.0,-999.0,85,-99.99,,,0.00,weatherlink.com 1.10,2013-02-15 15:27:00,
2013-02-15 09:42:00,30.2,27.0,30.14,NNW,328,6.0,-999.0,87,-99.99,,,0.00,weatherlink.com 1.10,2013-02-15 15:42:00,
2013-02-15 09:57:00,29.7,27.0,30.15,WNW,293,10.0,-999.0,89,-99.99,,,0.00,weatherlink.com 1.10,2013-02-15 15:57:00,
2013-02-15 10:12:00,29.0,26.0,30.15,NW,317,2.0,-999.0,88,-99.99,,,0.00,weatherlink.com 1.10,2013-02-15 16:12:00,
2013-02-15 10:27:00,29.6,25.0,30.16,NW,321,4.0,-999.0,83,-99.99,,,0.00,weatherlink.com 1.10,2013-02-15 16:27:00,
2013-02-15 10:42:00,29.9,25.0,30.16,WNW,301,5.0,-999.0,81,-99.99,,,0.00,weatherlink.com 1.10,2013-02-15 16:42:00,
2013-02-15 10:57:00,29.6,23.0,30.17,NW,319,4.0,-999.0,77,-99.99,,,0.00,weatherlink.com 1.10,2013-02-15 16:57:00,
2013-02-15 11:12:00,30.0,23.0,30.16,NW,307,2.0,-999.0,75,-99.99,,,0.00,weatherlink.com 1.10,2013-02-15 17:12:00,
2013-02-15 11:27:00,30.1,23.0,30.17,NNW,329,4.0,-999.0,75,-99.99,,,0.00,weatherlink.com 1.10,2013-02-15 17:27:00,
2013-02-15 11:42:00,29.7,23.0,30.17,NW,304,6.0,-999.0,75,-99.99,,,0.00,weatherlink.com 1.10,2013-02-15 17:42:00,
2013-02-15 11:57:00,29.9,23.0,30.16,West,279,3.0,-999.0,76,-99.99,,,0.00,weatherlink.com 1.10,2013-02-15 17:57:00,
2013-02-15 12:12:00,30.0,23.0,30.17,NNW,331,7.0,-999.0,74,-99.99,,,0.00,weatherlink.com 1.10,2013-02-15 18:12:00,
2013-02-15 12:27:00,30.2,22.0,30.17,NW,315,9.0,-999.0,70,-99.99,,,0.00,weatherlink.com 1.10,2013-02-15 18:27:00,
2013-02-15 12:42:00,30.2,20.0,30.16,NW,304,4.0,-999.0,66,-99.99,,,0.00,weatherlink.com 1.10,2013-02-15 18:42:00,
2013-02-15 12:57:00,31.1,19.0,30.16,North,350,10.0,-999.0,62,-99.99,,,0.00,weatherlink.com 1.10,2013-02-15 18:57:00,
2013-02-15 13:12:00,32.0,20.0,30.15,NNW,327,1.0,-999.0,62,-99.99,,,0.00,weatherlink.com 1.10,2013-02-15 19:12:00,
2013-02-15 13:27:00,31.9,18.0,30.15,North,5,4.0,-999.0,57,-99.99,,,0.00,weatherlink.com 1.10,2013-02-15 19:27:00,
2013-02-15 13:42:00,32.2,17.0,30.16,WNW,284,2.0,-999.0,54,-99.99,,,0.00,weatherlink.com 1.10,2013-02-15 19:42:00,
2013-02-15 13:57:00,32.2,18.0,30.16,NE,44,9.0,-999.0,55,-99.99,,,0.00,weatherlink.com 1.10,2013-02-15 19:57:00,
2013-02-15 14:12:00,32.6,18.0,30.16,NNW,333,6.0,-999.0,55,-99.99,,,0.00,weatherlink.com 1.10,2013-02-15 20:12:00,
2013-02-15 14:27:00,33.1,20.0,30.15,NW,315,5.0,-999.0,59,-99.99,,,0.00,weatherlink.com 1.10,2013-02-15 20:27:00,
2013-02-15 14:42:00,33.0,20.0,30.16,NW,317,9.0,-999.0,58,-99.99,,,0.00,weatherlink.com 1.10,2013-02-15 20:42:00,
2013-02-15 14:57:00,32.8,19.0,30.16,NNW,345,1.0,-999.0,57,-99.99,,,0.00,weatherlink.com 1.10,2013-02-15 20:57:00,
2013-02-15 15:12:00,32.6,19.0,30.17,WNW,296,2.0,-999.0,58,-99.99,,,0.00,weatherlink.com 1.10,2013-02-15 21:12:00,
2013-02-15 15:27:00,33.0,19.0,30.17,West,280,1.0,-999.0,57,-99.99,,,0.00,weatherlink.com 1.10,2013-02-15 21:27:00,
2013-02-15 15:42:00,32.9,19.0,30.18,North,9,6.0,-999.0,56,-99.99,,,0.00,weatherlink.com 1.10,2013-02-15 21:42:00,
2013-02-15 15:57:00,33.0,19.0,30.18,NNE,19,3.0,-999.0,56,-99.99,,,0.00,weatherlink.com 1.10,2013-02-15 21:57:00,
2013-02-15 16:13:00,32.4,19.0,30.18,NNW,328,5.0,-999.0,57,-99.99,,,0.00,weatherlink.com 1.10,2013-02-15 22:13:00,
2013-02-15 16:28:00,32.7,18.0,30.18,NW,321,6.0,-999.0,54,-99.99,,,0.00,weatherlink.com 1.10,2013-02-15 22:28:00,
2013-02-15 16:43:00,32.4,18.0,30.19,WNW,294,3.0,-999.0,55,-99.99,,,0.00,weatherlink.com 1.10,2013-02-15 22:43:00,
2013-02-15 16:58:00,31.7,18.0,30.19,NW,317,10.0,-999.0,58,-99.99,,,0.00,weatherlink.com 1.10,2013-02-15 22:58:00,
2013-02-15 17:12:00,31.0,18.0,30.19,NW,315,0.0,-999.0,60,-99.99,,,0.00,weatherlink.com 1.10,2013-02-15 23:12:00,
2013-02-15 17:27:00,30.6,19.0,30.19,NW,326,4.0,-999.0,62,-99.99,,,0.00,weatherlink.com 1.10,2013-02-15 23:27:00,
2013-02-15 17:42:00,30.3,19.0,30.20,NW,313,2.0,-999.0,63,-99.99,,,0.00,weatherlink.com 1.10,2013-02-15 23:42:00,
2013-02-15 17:57:00,30.0,19.0,30.20,WNW,297,2.0,-999.0,65,-99.99,,,0.00,weatherlink.com 1.10,2013-02-15 23:57:00,
2013-02-15 18:12:00,29.6,19.0,30.19,NW,325,0.0,-999.0,66,-99.99,,,0.00,weatherlink.com 1.10,2013-02-16 00:12:00,
2013-02-15 18:27:00,29.2,19.0,30.19,WNW,300,0.0,-999.0,66,-99.99,,,0.00,weatherlink.com 1.10,2013-02-16 00:27:00,
2013-02-15 18:42:00,28.9,19.0,30.19,NW,305,0.0,-999.0,67,-99.99,,,0.00,weatherlink.com 1.10,2013-02-16 00:42:00,
2013-02-15 18:57:00,28.5,19.0,30.19,NW,305,0.0,-999.0,68,-99.99,,,0.00,weatherlink.com 1.10,2013-02-16 00:57:00,
2013-02-15 19:13:00,27.9,20.0,30.19,NW,305,0.0,-999.0,73,-99.99,,,0.00,weatherlink.com 1.10,2013-02-16 01:13:00,
2013-02-15 19:28:00,27.5,20.0,30.19,NW,305,0.0,-999.0,74,-99.99,,,0.00,weatherlink.com 1.10,2013-02-16 01:28:00,
2013-02-15 19:43:00,27.4,21.0,30.19,NW,305,0.0,-999.0,76,-99.99,,,0.00,weatherlink.com 1.10,2013-02-16 01:43:00,
2013-02-15 19:58:00,27.8,22.0,30.19,NW,305,0.0,-999.0,78,-99.99,,,0.00,weatherlink.com 1.10,2013-02-16 01:58:00,
2013-02-15 20:13:00,28.1,22.0,30.19,WNW,302,0.0,-999.0,77,-99.99,,,0.00,weatherlink.com 1.10,2013-02-16 02:13:00,
2013-02-15 20:28:00,28.5,22.0,30.19,WNW,298,0.0,-999.0,77,-99.99,,,0.00,weatherlink.com 1.10,2013-02-16 02:28:00,
2013-02-15 20:43:00,28.5,22.0,30.19,West,273,3.0,-999.0,75,-99.99,,,0.00,weatherlink.com 1.10,2013-02-16 02:43:00,
2013-02-15 20:58:00,28.2,21.0,30.19,WNW,302,3.0,-999.0,74,-99.99,,,0.00,weatherlink.com 1.10,2013-02-16 02:58:00,
2013-02-15 21:13:00,27.8,21.0,30.19,NW,306,4.0,-999.0,74,-99.99,,,0.00,weatherlink.com 1.10,2013-02-16 03:13:00,
2013-02-15 21:28:00,27.2,20.0,30.19,NW,304,4.0,-999.0,75,-99.99,,,0.00,weatherlink.com 1.10,2013-02-16 03:28:00,
2013-02-15 21:43:00,26.6,19.0,30.19,NW,325,0.0,-999.0,74,-99.99,,,0.00,weatherlink.com 1.10,2013-02-16 03:43:00,
2013-02-15 21:58:00,26.1,19.0,30.19,NW,317,0.0,-999.0,74,-99.99,,,0.00,weatherlink.com 1.10,2013-02-16 03:58:00,
2013-02-15 22:13:00,25.5,18.0,30.19,NNW,335,4.0,-999.0,73,-99.99,,,0.00,weatherlink.com 1.10,2013-02-16 04:13:00,
2013-02-15 22:28:00,25.1,18.0,30.18,WNW,284,5.0,-999.0,74,-99.99,,,0.00,weatherlink.com 1.10,2013-02-16 04:28:00,
2013-02-15 22:43:00,24.7,18.0,30.19,WNW,283,5.0,-999.0,77,-99.99,,,0.00,weatherlink.com 1.10,2013-02-16 04:43:00,
2013-02-15 22:58:00,24.3,17.0,30.18,NW,325,4.0,-999.0,74,-99.99,,,0.00,weatherlink.com 1.10,2013-02-16 04:58:00,
2013-02-15 23:13:00,23.9,16.0,30.18,NW,308,4.0,-999.0,73,-99.99,,,0.00,weatherlink.com 1.10,2013-02-16 05:13:00,
2013-02-15 23:28:00,23.5,17.0,30.17,WNW,302,4.0,-999.0,75,-99.99,,,0.00,weatherlink.com 1.10,2013-02-16 05:28:00,
2013-02-15 23:43:00,23.3,17.0,30.17,NW,311,5.0,-999.0,76,-99.99,,,0.00,weatherlink.com 1.10,2013-02-16 05:43:00,
2013-02-15 23:58:00,22.9,17.0,30.17,WNW,303,5.0,-999.0,77,-99.99,,,0.00,weatherlink.com 1.10,2013-02-16 05:58:00,